Moses Lake, WA

6:58 AM PST on December 05, 2016 (GMT -0800)
Grant County International

Weather History for KMWH - December, 2013

Change the Weather History Date:

Thursday, December 5, 2013

  Actual Average Record
Temperature  
Mean Temperature 13 °F 30 °F  
Max Temperature 22 °F 37 °F 51 °F (1982)
Min Temperature 4 °F 24 °F 4 °F (2013)
Degree Days  
Heating Degree Days 52 35  
Month to date heating degree days 185 170  
Since 1 July heating degree days 1620 1631  
Cooling Degree Days 0 0  
Month to date cooling degree days 0 0  
Year to date cooling degree days 948 615  
Moisture  
Dew Point 6 °F    
Average Humidity 70    
Maximum Humidity 88    
Minimum Humidity 52    
Precipitation  
Precipitation 0.00 in 0.03 in 0.31 in (1998)
Month to date precipitation T 0.18  
Year to date precipitation 5.86 7.85  
Sea Level Pressure  
Sea Level Pressure 30.37 in    
Wind  
Wind Speed 3 mph (North)    
Max Wind Speed 8 mph    
Max Gust Speed 9 mph    
Visibility 10 miles    
Events      
T = Trace of Precipitation, MM = Missing Value Source: NWS Daily Summary

Daily Weather History Graph

Daily Weather History Graph

Search for Another Location

Airport or City:

Trip Planner

Search our weather history database for the weather conditions in past years. The results will help you decide how hot, cold, wet, or windy it might be!

Date:

Astronomy

Dec. 05, 2013 Rise Set
Actual Time 7:28 AM PST 4:07 PM PST
Civil Twilight 6:52 AM PST 4:43 PM PST
Nautical Twilight 6:14 AM PST 5:21 PM PST
Astronomical Twilight 5:37 AM PST 5:58 PM PST
Moon 9:46 AM PST 7:41 PM PST
Length of Visible Light 9h 50m
Length of Day
8h 39m
Waxing Crescent, 11% of the Moon is Illuminated
Dec 5
Waxing Crescent
Dec 9
First Quarter
Dec 17
Full
Dec 25
Last Quarter
Jan 1
New

Hourly Weather History & Observations

Time (PST) Temp. Windchill Dew Point Humidity Pressure Visibility Wind Dir Wind Speed Gust Speed Precip Events Conditions
12:52 AM 12.0 °F 2.7 °F 6.1 °F 77% 30.39 in 10.0 mi North 5.8 mph - N/A   Overcast
1:52 AM 12.9 °F - 5.0 °F 71% 30.39 in 10.0 mi Calm Calm - N/A   Partly Cloudy
2:52 AM 12.9 °F - 5.0 °F 71% 30.39 in 10.0 mi Calm Calm - N/A   Mostly Cloudy
3:52 AM 10.9 °F - 5.0 °F 77% 30.38 in 10.0 mi Calm Calm - N/A   Overcast
4:52 AM 10.0 °F - 5.0 °F 80% 30.37 in 10.0 mi Calm Calm - N/A   Mostly Cloudy
5:52 AM 10.0 °F - 3.9 °F 76% 30.38 in 10.0 mi Calm Calm - N/A   Partly Cloudy
6:52 AM 7.0 °F - 3.0 °F 84% 30.38 in 10.0 mi Calm Calm - N/A   Clear
7:52 AM 5.0 °F -4.1 °F 1.0 °F 84% 30.39 in 10.0 mi North 4.6 mph - N/A   Clear
8:52 AM 10.0 °F 3.6 °F 3.9 °F 76% 30.40 in 10.0 mi NNE 3.5 mph - N/A   Clear
9:52 AM 15.1 °F 9.4 °F 7.0 °F 70% 30.40 in 10.0 mi North 3.5 mph - N/A   Clear
10:52 AM 17.1 °F 8.7 °F 7.0 °F 65% 30.39 in 10.0 mi North 5.8 mph - N/A   Overcast
11:52 AM 19.0 °F 11.1 °F 6.1 °F 57% 30.38 in 10.0 mi NNE 5.8 mph - N/A   Overcast
12:52 PM 21.0 °F 14.6 °F 6.1 °F 53% 30.35 in 10.0 mi North 4.6 mph - N/A   Mostly Cloudy
1:52 PM 21.0 °F 14.6 °F 6.1 °F 53% 30.35 in 10.0 mi NNE 4.6 mph - N/A   Overcast
2:52 PM 21.0 °F - 6.1 °F 53% 30.34 in 10.0 mi Calm Calm - N/A   Overcast
3:52 PM 19.9 °F - 7.0 °F 57% 30.35 in 10.0 mi Calm Calm - N/A   Overcast
4:52 PM 18.0 °F 12.7 °F 6.1 °F 60% 30.35 in 10.0 mi NNW 3.5 mph - N/A   Scattered Clouds
5:52 PM 14.0 °F 8.2 °F 5.0 °F 67% 30.35 in 10.0 mi NNW 3.5 mph - N/A   Partly Cloudy
6:52 PM 10.9 °F 1.4 °F 5.0 °F 77% 30.37 in 10.0 mi North 5.8 mph - N/A   Mostly Cloudy
7:52 PM 12.9 °F 5.2 °F 5.0 °F 71% 30.37 in 10.0 mi North 4.6 mph - N/A   Overcast
8:52 PM 14.0 °F 6.5 °F 7.0 °F 74% 30.36 in 10.0 mi North 4.6 mph - N/A   Overcast
9:52 PM 17.1 °F 8.7 °F 8.1 °F 68% 30.35 in 10.0 mi North 5.8 mph - N/A   Overcast
10:52 PM 16.0 °F 8.8 °F 8.1 °F 71% 30.35 in 10.0 mi North 4.6 mph - N/A   Mostly Cloudy
11:52 PM 12.9 °F 3.8 °F 6.1 °F 74% 30.35 in 10.0 mi North 5.8 mph - N/A   Scattered Clouds